Meteo Giornale » Osservazioni meteo Australia » Melbourne
ore: 04:30 - Osservazioni Meteo Melbourne
Lat. 37° 40' S Lon. 144° 50' E Alt. 132 metri s.l.m.
12 °C
Sereno
Temp. 24 Ore
10 °C
19 °C
Nord/Nord-Est
25.9 Km/h
Dew point 11 °C
Umidità 93 %
Visibilità 10 Km
Il sole sorge alle ore 06:42
Il sole tramonta alle ore 17:59
| Data e Ora | Cielo e Fenomeni | T °C | DP °C | Um. % | Pres. hPa | Vis. km | Vento km/h | |
|---|---|---|---|---|---|---|---|---|
| Oggi h: 04:30 | Sereno | 12 | 11 | 93 | 1021 | 10 | N/NE 25.9 | |
| Oggi h: 04:00 | Sereno | 12 | 11 | 93 | 1022 | 10 | N/NE 27.8 | |
| Oggi h: 03:30 | Sereno | 12 | 11 | 93 | 1022 | 10 | N 27.8 | |
| Oggi h: 03:00 | Sereno | 13 | 11 | 87 | 1022 | 10 | N/NE 20.3 | |
| Oggi h: 02:30 | Sereno | 13 | 12 | 93 | 1023 | 10 | N 25.9 | |
| Oggi h: 02:00 | Sereno | 12 | 11 | 93 | 1023 | 10 | N 22.2 | |
| Oggi h: 01:30 | Sereno | 12 | 10 | 87 | 1024 | 10 | N 18.5 | |
| Oggi h: 01:00 | Sereno | 12 | 10 | 87 | 1024 | 10 | N 22.2 | |
| Oggi h: 00:30 | Sereno | 11 | 9 | 87 | 1024 | 10 | N 18.5 | |
| Oggi h: 00:00 | Sereno | 12 | 9 | 81 | 1025 | 10 | N 18.5 | |
| Ieri h: 23:30 | Sereno | 12 | 9 | 81 | 1025 | 10 | N 18.5 | |
| Ieri h: 23:00 | Sereno | 12 | 8 | 76 | 1026 | 10 | N 22.2 | |
| Ieri h: 22:30 | Sereno | 12 | 8 | 76 | 1026 | 10 | N 24 | |
| Ieri h: 22:00 | Sereno | 13 | 8 | 71 | 1026 | 10 | N 22.2 | |
| Ieri h: 21:30 | Sereno | 10 | 7 | 81 | 1026 | 10 | N 16.7 | |
| Ieri h: 21:00 | Sereno | 10 | 8 | 87 | 1026 | 10 | N 1.8 | |
| Ieri h: 20:30 | Sereno | 11 | 9 | 87 | 1027 | 10 | N 0 | |
| Ieri h: 20:00 | Sereno | 11 | 8 | 81 | 1027 | 10 | N 0 | |
| Ieri h: 19:30 | Sereno | 13 | 9 | 76 | 1027 | 10 | N 0 | |
| Ieri h: 19:00 | Sereno | 13 | 9 | 76 | 1027 | 10 | N 0 | |
| Ieri h: 18:30 | Sereno | 13 | 8 | 71 | 1027 | 10 | S/SE 9.3 | |
| Ieri h: 18:00 | Sereno | 15 | 9 | 67 | 1027 | 10 | S/SE 13 | |
| Ieri h: 17:30 | Sereno | 16 | 9 | 63 | 1027 | 10 | S 13 | |
| Ieri h: 17:00 | Sereno | 18 | 9 | 55 | 1027 | 10 | S 11.1 | |
| Ieri h: 16:30 | Sereno | 18 | 9 | 55 | 1027 | 10 | S/SO 9.3 | |
| Ieri h: 16:00 | Sereno | 19 | 8 | 48 | 1027 | 10 | S/SO 9.3 | |
| Ieri h: 15:30 | Sereno | 19 | 9 | 52 | 1028 | 10 | S 9.3 | |
| Ieri h: 15:00 | Sereno | 18 | 10 | 59 | 1028 | 10 | N 5.5 | |
| Ieri h: 14:30 | Sereno | 18 | 9 | 55 | 1028 | 10 | S 9.3 | |
| Ieri h: 14:00 | Sereno | 17 | 9 | 59 | 1029 | 10 | N 3.7 | |
| Ieri h: 13:30 | Sereno | 17 | 10 | 63 | 1029 | 10 | N 0 | |
| Ieri h: 13:00 | Sereno | 16 | 9 | 63 | 1030 | 10 | S/SE 9.3 | |
| Ieri h: 12:30 | Sereno | 16 | 9 | 63 | 1030 | 10 | N 5.5 | |
| Ieri h: 12:00 | Sereno | 15 | 10 | 72 | 1031 | 10 | S 9.3 | |
| Ieri h: 11:30 | Sereno | 15 | 9 | 67 | 1031 | 10 | S 9.3 | |
| Ieri h: 11:00 | Sereno | 14 | 9 | 71 | 1032 | 10 | SE 9.3 | |
| Ieri h: 10:30 | Sereno | 13 | 9 | 76 | 1032 | 10 | N 5.5 | |
| Ieri h: 10:05 | Poco Nuvoloso | 13 | 8 | 71 | 1032 | 10 | N 5.5 | |
| Ieri h: 10:00 | Poco Nuvoloso | 13 | 9 | 76 | 1032 | 10 | E 7.4 | |
| Ieri h: 09:30 | Coperto | 13 | 8 | 71 | 1032 | 10 | N 5.5 | |
| Ieri h: 09:00 | Coperto | 12 | 10 | 87 | 1032 | 10 | N 5.5 | |
| Ieri h: 08:30 | Coperto | 11 | 9 | 87 | 1032 | 10 | N 0 | |
| Ieri h: 08:00 | Coperto | 10 | 9 | 93 | 1032 | 10 | N 0 | |
| Ieri h: 07:30 | Coperto | 10 | 9 | 93 | 1032 | 10 | N 0 | |
| Ieri h: 07:00 | Coperto | 10 | 9 | 93 | 1032 | 10 | N 0 | |
| Ieri h: 06:30 | Coperto | 10 | 9 | 93 | 1032 | 10 | N 0 | |
| Ieri h: 06:00 | Coperto | 10 | 9 | 93 | 1032 | 10 | N 0 | |
| Ieri h: 05:30 | Coperto | 10 | 9 | 93 | 1032 | 10 | N 0 | |
| Ieri h: 05:00 | Coperto | 10 | 9 | 93 | 1032 | 10 | N 0 | |



